Powrót do katalogu

STARLINK-35895

AktywnyŁącznośćVLEO
NORAD 66354·PAYLOAD·🇺🇸 United States

Wystrzelony Nov 6, 2025 z Vandenberg Space Force Base

Loading…

Następne Przeloty (najbliższe 24 godziny)

TLE

ŚwieżeSource: CelesTrak SupGP

Epoka: Sep 14, 2026, 21:23 UTC

1 66354C 25254G   26257.89145833  .00044877  00000+0  13626-2 0  2571
2 66354  53.1589  72.0446 0001233  93.7476 345.7304 15.33506903    17

Śledź STARLINK-35895 w czasie rzeczywistym z AllMySat

Download on the App Store